User: anonymous   Login
Location: Space Photons Observatory
(33.2428°N, 111.5467°W)
Time: 07:11:07
(UTC-07:00)
Language:

RESURS DK-1 - Orbit

View from above orbital plane
View from above orbital plane
View from above satellite
View from above satellite

Ground track
Ground track

The orbit data is extracted from the following two-line orbital elements,

1 29228U 06021A   16207.19814465  .00000248  00000-0  26340-4 0  9999
2 29228  69.9340 209.8801 0002649 162.1227 198.0027 15.01947174559001
Epoch (UTC): 25 July 2016 04:45:19
Eccentricity: 0.0002649
inclination: 69.9340°
perigee height: 559 km
apogee height: 563 km
right ascension of ascending node: 209.8801°
argument of perigee: 162.1227°
revolutions per day: 15.01947174
mean anomaly at epoch: 198.0027°
orbit number at epoch: 55900

The dashed part of the orbit path shows where the satellite is in the earth's shadow,  

DLR